TimeAST,TemperatureF,Dew PointF,Humidity,Sea Level PressureIn,VisibilityMPH,Wind Direction,Wind SpeedMPH,Gust SpeedMPH,PrecipitationIn,Events,Conditions,WindDirDegrees,DateUTC
1:53 AM,75.9,71.1,85,29.95,10.0,East,4.6,-,N/A,,Clear,80,2013-04-29 05:53:00
2:53 AM,75.0,71.1,87,29.94,10.0,East,5.8,-,N/A,,Clear,90,2013-04-29 06:53:00
3:53 AM,73.9,71.1,91,29.93,10.0,East,3.5,-,N/A,,Clear,90,2013-04-29 07:53:00
4:53 AM,75.0,71.1,87,29.93,10.0,East,5.8,-,N/A,,Clear,100,2013-04-29 08:53:00
5:53 AM,73.9,71.1,91,29.94,10.0,East,4.6,-,N/A,,Clear,100,2013-04-29 09:53:00
6:53 AM,77.0,72.0,84,29.96,10.0,ESE,3.5,-,N/A,,Clear,110,2013-04-29 10:53:00
7:53 AM,80.1,71.1,74,29.97,10.0,East,8.1,-,N/A,,Clear,90,2013-04-29 11:53:00
8:53 AM,82.0,71.1,69,29.99,10.0,ESE,5.8,-,N/A,,Scattered Clouds,120,2013-04-29 12:53:00
9:16 AM,82.4,69.8,66,29.99,10.0,East,10.4,17.3,N/A,,Mostly Cloudy,90,2013-04-29 13:16:00
9:43 AM,84.2,69.8,62,29.99,10.0,East,9.2,-,N/A,,Scattered Clouds,100,2013-04-29 13:43:00
9:53 AM,84.0,69.1,61,30.00,10.0,ENE,9.2,-,N/A,,Scattered Clouds,70,2013-04-29 13:53:00
10:53 AM,82.0,72.0,71,29.99,10.0,SE,11.5,-,N/A,,Mostly Cloudy,130,2013-04-29 14:53:00
11:53 AM,84.0,72.0,67,29.99,10.0,SE,12.7,-,N/A,,Overcast,130,2013-04-29 15:53:00
12:53 PM,81.0,71.1,72,29.96,10.0,SSE,13.8,-,N/A,,Overcast,150,2013-04-29 16:53:00
1:53 PM,82.9,72.0,69,29.95,10.0,SSE,12.7,-,N/A,,Mostly Cloudy,150,2013-04-29 17:53:00
3:53 PM,82.9,70.0,65,29.94,10.0,ESE,6.9,-,N/A,,Mostly Cloudy,110,2013-04-29 19:53:00
4:53 PM,82.0,71.1,69,29.94,10.0,ENE,11.5,-,N/A,,Partly Cloudy,60,2013-04-29 20:53:00
5:53 PM,81.0,70.0,69,29.94,10.0,ENE,10.4,-,N/A,,Clear,70,2013-04-29 21:53:00
6:53 PM,79.0,70.0,74,29.95,10.0,East,10.4,-,N/A,,Clear,90,2013-04-29 22:53:00
7:53 PM,79.0,71.1,77,29.96,10.0,East,6.9,-,N/A,,Clear,80,2013-04-29 23:53:00
8:53 PM,78.1,71.1,79,29.98,10.0,East,8.1,-,N/A,,Partly Cloudy,80,2013-04-30 00:53:00
9:53 PM,78.1,72.0,81,30.00,10.0,East,9.2,-,N/A,,Clear,100,2013-04-30 01:53:00
10:53 PM,77.0,71.1,82,30.00,10.0,East,8.1,-,N/A,,Clear,90,2013-04-30 02:53:00
11:53 PM,77.0,71.1,82,29.99,10.0,East,6.9,-,N/A,,Clear,90,2013-04-30 03:53:00